Weather History for Palm Springs, CA

Change the Weather History Date:

Sunday, July 28, 2013

  Actual Average Record
Temperature  
Mean Temperature 95 °F 93 °F  
Max Temperature 108 °F 108 °F 123 °F (1995)
Min Temperature 82 °F 78 °F 59 °F (1941)
Degree Days  
Heating Degree Days 0 0  
Month to date heating degree days 0 0  
Since 1 June heating degree days 0 0  
Since 1 July heating degree days 0 0  
Cooling Degree Days 30 28  
Month to date cooling degree days 809 764  
Year to date cooling degree days 2597 2170  
Since 1 June cooling degree days 1555 1411  
Growing Degree Days 46 (Base 50)    
Moisture  
Dew Point 43 °F    
Average Humidity 21    
Maximum Humidity 34    
Minimum Humidity 8    
Precipitation  
Precipitation 0.00 in 0.02 in 0.83 in (1968)
Month to date precipitation 0.94 0.20  
Year to date precipitation 1.91 3.14  
Since 1 July precipitation 0.94 0.20  
Snow  
Snow 0.00 in - - ()
Month to date snowfall 0.0  
Year to date snowfall 0.0  
Since 1 July snowfall 0.0  
Snow Depth 0.00 in    
Sea Level Pressure  
Sea Level Pressure 29.71 in    
Wind  
Wind Speed 8 mph (NW)    
Max Wind Speed 28 mph    
Max Gust Speed 32 mph    
Visibility 10 miles    
Events      
T = Trace of Precipitation, MM = Missing Value Source: NWS Daily Summary

Daily Weather History Graph

Daily Weather History Graph

Search for Another Location

Airport:

Trip Planner

Search our weather history database for the weather conditions in past years. The results will help you decide how hot, cold, wet, or windy it might be!

Date:

Astronomy

Jul. 28, 2013 Rise Set
Actual Time 5:55 AM PDT 7:49 PM PDT
Civil Twilight 5:27 AM PDT 8:16 PM PDT
Nautical Twilight 4:54 AM PDT 8:50 PM PDT
Astronomical Twilight 4:18 AM PDT 9:25 PM PDT
Moon 11:37 PM PDT (7/28) 12:19 PM PDT (7/28)
Length of Visible Light 14h 49m
Length of Day
13h 54m
Waning Gibbous, 60% of the Moon is Illuminated
Jul 28
Waning Gibbous
Jul 29
Last Quarter
Aug 6
New
Aug 14
First Quarter
Aug 20
Full

Hourly Weather History & Observations

Time (PDT) Temp. Heat Index Dew Point Humidity Pressure Visibility Wind Dir Wind Speed Gust Speed Precip Events Conditions
12:53 AM 91.0 °F 88.7 °F 54.0 °F 28% 29.73 in 10.0 mi Calm Calm - N/A   Mostly Cloudy
1:53 AM 88.0 °F 86.5 °F 55.9 °F 34% 29.72 in 10.0 mi Calm Calm - N/A   Clear
2:53 AM 87.1 °F 85.7 °F 55.9 °F 35% 29.71 in 10.0 mi Calm Calm - N/A   Clear
3:53 AM 84.9 °F 83.3 °F 54.0 °F 34% 29.71 in 10.0 mi Calm Calm - N/A   Clear
4:53 AM 84.9 °F 83.2 °F 53.1 °F 33% 29.71 in 10.0 mi SE 3.5 mph - N/A   Clear
5:53 AM 84.0 °F 82.5 °F 53.1 °F 34% 29.73 in 10.0 mi Calm Calm - N/A   Clear
6:53 AM 84.9 °F 83.2 °F 53.1 °F 33% 29.74 in 10.0 mi SE 3.5 mph - N/A   Clear
7:53 AM 87.1 °F 85.3 °F 55.0 °F 33% 29.75 in 10.0 mi Calm Calm - N/A   Clear
8:53 AM 95.0 °F - 48.9 °F 21% 29.75 in 10.0 mi NW 8.1 mph - N/A   Clear
9:53 AM 98.1 °F - 51.1 °F 20% 29.75 in 10.0 mi NW 6.9 mph - N/A   Clear
10:53 AM 100.9 °F - 45.0 °F 15% 29.74 in 10.0 mi NW 11.5 mph - N/A   Partly Cloudy
11:53 AM 104.0 °F - 39.9 °F 11% 29.73 in 10.0 mi NW 15.0 mph - N/A   Clear
12:53 PM 105.1 °F - 37.0 °F 10% 29.71 in 10.0 mi WNW 16.1 mph - N/A   Partly Cloudy
1:53 PM 106.0 °F - 37.0 °F 9% 29.70 in 10.0 mi NW 17.3 mph 24.2 mph N/A   Clear
2:53 PM 107.1 °F - 37.0 °F 9% 29.68 in 10.0 mi NW 19.6 mph 27.6 mph N/A   Partly Cloudy
3:53 PM 106.0 °F - 35.1 °F 9% 29.66 in 10.0 mi NW 21.9 mph 28.8 mph N/A   Partly Cloudy
4:53 PM 105.1 °F - 33.1 °F 8% 29.66 in 10.0 mi NW 18.4 mph 27.6 mph N/A   Clear
5:53 PM 102.0 °F - 34.0 °F 9% 29.66 in 10.0 mi NW 16.1 mph 21.9 mph N/A   Clear
6:53 PM 98.1 °F - 37.0 °F 12% 29.67 in 10.0 mi NW 15.0 mph 33.4 mph N/A   Clear
7:53 PM 95.0 °F - 34.0 °F 12% 29.68 in 10.0 mi NW 20.7 mph 26.5 mph N/A   Clear
8:53 PM 93.0 °F - 34.0 °F 12% 29.69 in 10.0 mi NW 11.5 mph 20.7 mph N/A   Clear
9:53 PM 90.0 °F - 33.1 °F 13% 29.72 in 10.0 mi NW 18.4 mph - N/A   Clear
10:53 PM 89.1 °F - 32.0 °F 13% 29.73 in 10.0 mi WNW 4.6 mph - N/A   Clear
11:53 PM 88.0 °F - 34.0 °F 15% 29.74 in 10.0 mi NW 4.6 mph - N/A   Clear